GW4136 Weather Reports


time (UTC)temp
C
wind
direction
speed
KPH
gust
KPH
rain 1hr
cm
rain 24hr
cm
rain mn
cm
humidity
%
barometer
mb
20260507160604 15 62 0.0 4.8 0.00 0.00 0.00 56 1016.1
20260507160104 15 57 0.0 4.8 0.00 0.00 0.00 57 1016.2
20260507155604 15 30 1.6 4.8 0.00 0.00 0.00 56 1016.1
20260507155104 15 10 3.2 9.7 0.00 0.00 0.00 57 1016.2
20260507154605 15 90 0.0 3.2 0.00 0.00 0.00 57 1016.1
20260507154104 15 103 1.6 4.8 0.00 0.00 0.00 57 1016.2
20260507153604 15 67 0.0 3.2 0.00 0.00 0.00 56 1016.2
20260507153104 15 57 0.0 4.8 0.00 0.00 0.00 55 1016.2
20260507152605 15 88 0.0 4.8 0.00 0.00 0.00 55 1016.3
20260507152104 15 38 0.0 1.6 0.00 0.00 0.00 56 1016.2
20260507151604 15 335 0.0 1.6 0.00 0.00 0.00 55 1016.3
20260507150605 16 27 0.0 4.8 0.00 0.00 0.00 54 1016.3
20260507150105 16 333 0.0 4.8 0.00 0.00 0.00 53 1016.3
20260507145604 16 0 0.0 1.6 0.00 0.00 0.00 54 1016.3
20260507145103 16 17 0.0 1.6 0.00 0.00 0.00 53 1016.4
20260507144605 16 135 1.6 4.8 0.00 0.00 0.00 54 1016.4
20260507144104 16 91 1.6 8.0 0.00 0.00 0.00 53 1016.4
20260507143104 15 89 0.0 4.8 0.00 0.00 0.00 54 1016.4
20260507142605 15 70 0.0 3.2 0.00 0.00 0.00 54 1016.5
20260507142105 16 349 0.0 3.2 0.00 0.00 0.00 54 1016.6
20260507141605 16 75 0.0 4.8 0.00 0.00 0.00 53 1016.6
20260507141105 16 33 0.0 4.8 0.00 0.00 0.00 55 1016.6
20260507140106 16 330 0.0 3.2 0.00 0.00 0.00 55 1016.7
20260507135605 15 354 1.6 4.8 0.00 0.00 0.00 56 1016.8
20260507134605 15 70 0.0 8.0 0.00 0.00 0.00 55 1016.8
20260507134104 15 109 0.0 9.7 0.00 0.00 0.00 56 1016.8
20260507133604 15 111 1.6 9.7 0.00 0.00 0.00 58 1016.8
20260507133104 15 83 1.6 8.0 0.00 0.00 0.00 57 1016.8
20260507132605 15 52 0.0 4.8 0.00 0.00 0.00 57 1016.8
20260507132105 15 2 1.6 4.8 0.00 0.00 0.00 56 1016.9
20260507131605 15 346 0.0 3.2 0.00 0.00 0.00 58 1016.9
20260507131105 15 19 1.6 4.8 0.00 0.00 0.00 54 1016.9
20260507130604 16 79 1.6 4.8 0.00 0.00 0.00 54 1016.9
20260507130105 16 83 1.6 3.2 0.00 0.00 0.00 54 1016.9
20260507125605 16 67 0.0 4.8 0.00 0.00 0.00 54 1016.9
20260507125105 16 88 1.6 4.8 0.00 0.00 0.00 55 1016.9
20260507124605 16 107 1.6 8.0 0.00 0.00 0.00 54 1016.9
20260507124105 16 87 1.6 9.7 0.00 0.00 0.00 56 1017.0
20260507123604 15 73 0.0 4.8 0.00 0.00 0.00 58 1017.0
20260507123104 15 99 1.6 4.8 0.00 0.00 0.00 55 1017.0
20260507122605 16 98 0.0 9.7 0.00 0.00 0.00 56 1017.0
20260507122105 16 82 1.6 3.2 0.00 0.00 0.00 57 1017.0
20260507121605 15 262 0.0 3.2 0.00 0.00 0.00 58 1017.0
20260507121105 15 290 0.0 3.2 0.00 0.00 0.00 58 1017.1
20260507120605 15 42 0.0 3.2 0.00 0.00 0.00 60 1017.1
20260507115605 15 32 0.0 4.8 0.00 0.00 0.00 64 1017.2
20260507115105 14 12 0.0 4.8 0.00 0.00 0.00 66 1017.2
20260507114605 14 73 0.0 4.8 0.00 0.00 0.00 69 1017.2
20260507114105 13 2 0.0 4.8 0.00 0.00 0.00 69 1017.4
20260507113605 13 90 0.0 3.2 0.00 0.00 0.00 69 1017.5
20260507112106 12 94 1.6 3.2 0.00 0.00 0.00 70 1017.6
20260507111606 12 92 0.0 4.8 0.00 0.00 0.00 71 1017.7
20260507110605 12 22 0.0 3.2 0.00 0.00 0.00 71 1017.8
20260507110105 12 347 0.0 3.2 0.00 0.00 0.00 74 1017.8
20260507105605 12 61 1.6 4.8 0.00 0.00 0.00 74 1017.9
20260507105105 12 56 0.0 4.8 0.00 0.00 0.00 75 1017.9
20260507104605 11 85 0.0 3.2 0.00 0.00 0.00 75 1017.9
20260507104109 11 77 1.6 4.8 0.00 0.00 0.00 74 1018.0
20260507103605 11 94 0.0 1.6 0.00 0.00 0.00 75 1017.9
20260507103105 11 92 0.0 4.8 0.00 0.00 0.00 75 1018.0
20260507102605 11 87 0.0 4.8 0.00 0.00 0.00 76 1018.0
20260507101605 11 319 0.0 1.6 0.00 0.00 0.00 78 1018.0
20260507101105 11 88 0.0 3.2 0.00 0.00 0.00 77 1018.0
20260507100605 11 353 0.0 3.2 0.00 0.00 0.00 78 1018.0
20260507095605 10 27 0.0 3.2 0.00 0.00 0.00 78 1018.0
20260507095105 10 91 0.0 1.6 0.00 0.00 0.00 78 1018.0
20260507094605 10 85 0.0 3.2 0.00 0.00 0.00 78 1018.0
20260507093605 10 13 0.0 3.2 0.00 0.00 0.00 80 1017.8
20260507093105 10 354 0.0 1.6 0.00 0.00 0.00 80 1017.8
20260507092605 10 14 0.0 3.2 0.00 0.00 0.00 80 1017.9
20260507091605 10 16 0.0 4.8 0.00 0.00 0.00 81 1017.9
20260507091105 10 80 0.0 1.6 0.00 0.00 0.00 81 1017.9
20260507090605 10 287 0.0 1.6 0.00 0.00 0.00 82 1017.9
20260507085605 9 353 0.0 1.6 0.00 0.00 0.00 82 1017.9
20260507084605 9 76 0.0 3.2 0.00 0.00 0.00 83 1017.9
20260507084105 9 26 0.0 3.2 0.00 0.00 0.00 83 1017.9
20260507083605 9 334 0.0 3.2 0.00 0.00 0.00 83 1017.9
20260507083105 8 68 0.0 1.6 0.00 0.00 0.00 83 1017.9
20260507082605 8 97 0.0 1.6 0.00 0.00 0.00 84 1017.8
20260507082105 8 19 0.0 1.6 0.00 0.00 0.00 84 1017.9
20260507081606 8 12 0.0 3.2 0.00 0.00 0.00 85 1017.7
20260507081105 8 302 0.0 3.2 0.00 0.00 0.00 85 1017.7
20260507080105 8 347 0.0 3.2 0.00 0.00 0.00 85 1017.7
20260507075605 8 293 0.0 1.6 0.00 0.00 0.00 86 1017.7
20260507075105 8 42 0.0 0.0 0.00 0.00 0.00 86 1017.7
20260507074605 8 72 0.0 1.6 0.00 0.00 0.00 87 1017.7
20260507074105 8 31 0.0 1.6 0.00 0.00 0.00 87 1017.8
20260507073605 7 90 0.0 1.6 0.00 0.00 0.00 87 1017.8
20260507073105 7 104 0.0 1.6 0.00 0.00 0.00 87 1017.8
20260507072605 7 83 0.0 1.6 0.00 0.00 0.00 87 1017.8
20260507071605 7 349 0.0 1.6 0.00 0.00 0.00 88 1017.7
20260507071105 7 60 0.0 3.2 0.00 0.00 0.00 88 1017.7
20260507070605 7 89 0.0 3.2 0.00 0.00 0.00 88 1017.7
20260507070106 7 321 0.0 4.8 0.00 0.00 0.00 89 1017.7
20260507065604 7 114 0.0 1.6 0.00 0.00 0.00 89 1017.7
20260507064606 7 320 0.0 1.6 0.00 0.00 0.00 90 1017.7
20260507064105 6 61 0.0 3.2 0.00 0.00 0.00 90 1017.7
20260507063605 6 13 1.6 4.8 0.00 0.00 0.00 90 1017.7
20260507062105 6 127 0.0 4.8 0.00 0.00 0.00 91 1017.6
20260507061605 6 58 0.0 1.6 0.00 0.00 0.00 91 1017.6
20260507061105 6 128 0.0 1.6 0.00 0.00 0.00 92 1017.6
20260507060605 6 86 0.0 1.6 0.00 0.00 0.00 92 1017.6
20260507055105 6 216 0.0 3.2 0.00 0.00 0.00 92 1017.5
20260507053606 5 100 0.0 1.6 0.00 0.00 0.00 92 1017.3
20260507052606 5 14 0.0 1.6 0.00 0.00 0.00 92 1017.4
20260507052106 5 17 0.0 4.8 0.00 0.00 0.00 92 1017.4
20260507051606 5 329 0.0 0.0 0.00 0.00 0.00 92 1017.5
20260507051105 5 350 0.0 3.2 0.00 0.00 0.00 93 1017.5
20260507050605 5 65 0.0 0.0 0.00 0.00 0.00 92 1017.6
20260507050106 5 87 0.0 1.6 0.00 0.00 0.00 93 1017.6
20260507045606 5 269 0.0 3.2 0.00 0.00 0.00 93 1017.7
20260507045105 5 78 0.0 1.6 0.00 0.00 0.00 92 1017.7
20260507044605 5 34 0.0 1.6 0.00 0.00 0.00 92 1017.6
20260507044105 5 340 0.0 1.6 0.00 0.00 0.00 92 1017.6
20260507043605 5 316 0.0 0.0 0.00 0.00 0.00 92 1017.6
20260507042605 5 75 0.0 1.6 0.00 0.00 0.00 92 1017.5
20260507042106 5 96 0.0 0.0 0.00 0.00 0.00 92 1017.5
20260507041606 5 96 0.0 1.6 0.00 0.00 0.00 92 1017.4
20260507041106 5 72 0.0 0.0 0.00 0.00 0.00 92 1017.4
20260507040605 5 50 0.0 1.6 0.00 0.00 0.00 92 1017.5
20260507040106 5 53 0.0 0.0 0.00 0.00 0.00 92 1017.5
20260507035605 5 53 0.0 0.0 0.00 0.00 0.00 92 1017.5
20260507035105 5 53 0.0 0.0 0.00 0.00 0.00 92 1017.4
20260507034605 5 26 0.0 0.0 0.00 0.00 0.00 92 1017.4
20260507034106 5 307 0.0 1.6 0.00 0.00 0.00 92 1017.3
20260507033605 5 124 0.0 1.6 0.00 0.00 0.00 92 1017.2
20260507033106 5 70 0.0 1.6 0.00 0.00 0.00 92 1017.3
20260507032606 5 320 0.0 0.0 0.00 0.00 0.00 91 1017.2
20260507032105 5 320 0.0 1.6 0.00 0.00 0.00 91 1017.3
20260507031606 5 297 0.0 1.6 0.00 0.00 0.00 91 1017.3
20260507031105 5 279 0.0 1.6 0.00 0.00 0.00 91 1017.4
20260507030605 5 279 0.0 0.0 0.00 0.00 0.00 91 1017.5
20260507030106 5 279 0.0 0.0 0.00 0.00 0.00 91 1017.5
20260507025106 5 279 0.0 1.6 0.00 0.00 0.00 91 1017.5
20260507024606 5 75 0.0 1.6 0.00 0.00 0.00 90 1017.4
20260507023606 5 1 0.0 1.6 0.00 0.00 0.00 90 1017.3
20260507022607 5 73 0.0 0.0 0.00 0.00 0.00 90 1017.4
20260507021606 6 73 0.0 0.0 0.00 0.00 0.00 90 1017.5
20260507021105 6 76 0.0 0.0 0.00 0.00 0.00 89 1017.5
20260507020606 6 76 0.0 1.6 0.00 0.00 0.00 89 1017.5
20260507015106 6 343 0.0 0.0 0.00 0.00 0.00 89 1017.4
20260507014605 6 209 0.0 0.0 0.00 0.00 0.00 89 1017.3
20260507014106 6 298 0.0 0.0 0.00 0.00 0.00 89 1017.3
20260507013105 6 170 0.0 1.6 0.00 0.00 0.00 89 1017.4
20260507012106 6 6 0.0 1.6 0.00 0.00 0.00 89 1017.4
20260507011606 6 12 0.0 1.6 0.00 0.00 0.00 89 1017.4
20260507010606 6 35 0.0 3.2 0.00 0.00 0.00 89 1017.4
20260507010106 6 302 0.0 1.6 0.00 0.00 0.00 89 1017.4
20260507005606 6 329 0.0 1.6 0.00 0.00 0.00 89 1017.3
20260507005106 6 332 0.0 1.6 0.00 0.00 0.00 89 1017.3
20260507004106 6 45 0.0 4.8 0.00 0.00 0.00 89 1017.3
20260507003606 6 314 0.0 3.2 0.00 0.00 0.00 89 1017.3
20260507003106 6 308 0.0 1.6 0.00 0.00 0.00 89 1017.3
20260507002606 6 33 0.0 3.2 0.00 0.00 0.00 89 1017.4
20260507002106 6 304 0.0 3.2 0.00 0.00 0.00 89 1017.4
20260507001606 6 0 0.0 1.6 0.00 0.00 0.00 88 1017.4
20260507001106 6 45 0.0 3.2 0.00 0.00 0.00 88 1017.5
20260507000106 6 344 0.0 1.6 0.00 0.00 0.00 88 1017.6
20260506235605 6 329 0.0 1.6 0.00 0.00 0.00 88 1017.7
20260506235105 6 28 0.0 1.6 0.00 0.00 0.00 88 1017.6
20260506234606 6 302 0.0 3.2 0.00 0.00 0.00 88 1017.6
20260506234107 6 145 0.0 1.6 0.00 0.00 0.00 88 1017.6
20260506233606 6 231 0.0 1.6 0.00 0.00 0.00 88 1017.7
20260506233106 6 297 0.0 1.6 0.00 0.00 0.00 88 1017.6
20260506232606 6 348 0.0 1.6 0.00 0.00 0.00 88 1017.6
20260506232106 6 308 0.0 1.6 0.00 0.00 0.00 88 1017.6
20260506231606 6 62 0.0 1.6 0.00 0.00 0.00 88 1017.5
20260506231106 6 300 0.0 1.6 0.00 0.00 0.00 88 1017.5
20260506230604 6 3 0.0 1.6 0.00 0.00 0.00 88 1017.5
20260506230106 6 285 0.0 1.6 0.00 0.00 0.00 88 1017.6
20260506225606 6 294 0.0 1.6 0.00 0.00 0.00 88 1017.5
20260506225105 6 319 0.0 0.0 0.00 0.00 0.00 88 1017.6
20260506224605 6 313 0.0 1.6 0.00 0.00 0.00 88 1017.6
20260506223604 6 308 0.0 1.6 0.00 0.00 0.00 87 1017.7
20260506223104 6 352 0.0 4.8 0.00 0.00 0.00 87 1017.7
20260506222604 6 22 0.0 3.2 0.00 0.00 0.00 87 1017.6
20260506222105 6 275 0.0 1.6 0.00 0.00 0.00 87 1017.6
20260506221105 6 91 0.0 0.0 0.00 0.00 0.00 86 1017.5
20260506220604 6 89 0.0 1.6 0.00 0.00 0.00 86 1017.5
20260506220105 6 105 0.0 3.2 0.00 0.00 0.00 86 1017.5
20260506215605 6 56 0.0 4.8 0.00 0.00 0.00 86 1017.4
20260506215105 6 285 0.0 1.6 0.00 0.00 0.00 85 1017.5
20260506214605 6 104 0.0 1.6 0.00 0.00 0.00 85 1017.5
20260506214105 6 75 0.0 1.6 0.00 0.00 0.00 85 1017.4
20260506213605 7 69 0.0 1.6 0.00 0.00 0.00 84 1017.4
20260506213104 7 47 0.0 1.6 0.00 0.00 0.00 84 1017.3
20260506212605 7 333 0.0 3.2 0.00 0.00 0.00 84 1017.4
20260506212104 7 59 0.0 1.6 0.00 0.00 0.00 84 1017.4
20260506211605 7 324 0.0 1.6 0.00 0.00 0.00 83 1017.4
20260506211104 7 316 0.0 1.6 0.00 0.00 0.00 83 1017.4
20260506210105 7 343 0.0 3.2 0.00 0.00 0.00 82 1017.2
20260506205605 7 290 0.0 3.2 0.00 0.00 0.00 82 1017.2
20260506205104 7 66 0.0 3.2 0.00 0.00 0.00 82 1017.2
20260506204604 7 14 0.0 3.2 0.00 0.00 0.00 82 1017.1
20260506204104 7 96 0.0 3.2 0.00 0.00 0.00 81 1017.1
20260506203604 7 209 0.0 1.6 0.00 0.00 0.00 81 1017.0
20260506203105 7 295 0.0 1.6 0.00 0.00 0.00 80 1017.0
20260506202605 7 136 0.0 0.0 0.00 0.00 0.00 79 1016.9
20260506202104 8 282 0.0 1.6 0.00 0.00 0.00 79 1016.9
20260506201605 8 332 0.0 3.2 0.00 0.00 0.00 79 1016.9
20260506201104 8 48 0.0 1.6 0.00 0.00 0.00 78 1016.8
20260506200604 8 15 0.0 1.6 0.00 0.00 0.00 78 1016.8
20260506195604 8 15 0.0 4.8 0.00 0.00 0.00 76 1016.7
20260506195104 8 13 0.0 1.6 0.00 0.00 0.00 76 1016.6
20260506194604 8 328 0.0 3.2 0.00 0.00 0.00 75 1016.6
20260506193604 8 65 0.0 3.2 0.00 0.00 0.00 76 1016.4
20260506193104 9 250 0.0 4.8 0.00 0.00 0.00 76 1016.3
20260506192604 9 351 0.0 3.2 0.00 0.00 0.00 75 1016.3
20260506192104 9 30 0.0 3.2 0.00 0.00 0.00 75 1016.3
20260506191605 9 148 0.0 3.2 0.00 0.00 0.00 74 1016.3
20260506190605 10 3 0.0 1.6 0.00 0.00 0.00 73 1016.2
20260506190104 10 68 0.0 4.8 0.00 0.00 0.00 73 1016.3
20260506185604 10 268 0.0 3.2 0.00 0.00 0.00 72 1016.2
20260506185105 10 30 0.0 4.8 0.00 0.00 0.00 71 1016.3
20260506184604 10 94 0.0 4.8 0.00 0.00 0.00 71 1016.3
20260506184104 10 83 0.0 3.2 0.00 0.00 0.00 71 1016.3
20260506183604 11 238 0.0 4.8 0.00 0.00 0.00 70 1016.2
20260506182604 11 264 0.0 4.8 0.00 0.00 0.00 69 1016.2
20260506182105 11 315 1.6 4.8 0.00 0.00 0.00 69 1016.2
20260506181604 11 267 1.6 3.2 0.00 0.00 0.00 68 1016.2
20260506181104 11 270 0.0 1.6 0.00 0.00 0.00 69 1016.2
20260506180604 11 250 1.6 4.8 0.00 0.00 0.00 69 1016.2
20260506180104 11 282 0.0 4.8 0.00 0.00 0.00 68 1016.2
20260506175604 11 275 1.6 4.8 0.00 0.00 0.00 67 1016.0
20260506175104 11 246 1.6 3.2 0.00 0.00 0.00 67 1016.0
20260506174605 11 177 1.6 3.2 0.00 0.00 0.00 67 1016.1
20260506174105 11 277 1.6 4.8 0.00 0.00 0.00 64 1015.9
20260506173605 11 274 1.6 4.8 0.00 0.00 0.00 62 1015.9
20260506173105 12 266 1.6 8.0 0.00 0.00 0.00 62 1015.9
20260506172604 12 292 0.0 4.8 0.00 0.00 0.00 61 1015.8
20260506172105 12 271 1.6 4.8 0.00 0.00 0.00 61 1015.8
20260506171604 12 269 1.6 4.8 0.00 0.00 0.00 61 1015.8
20260506171104 12 286 1.6 4.8 0.00 0.00 0.00 62 1015.8
20260506170604 12 296 0.0 4.8 0.00 0.00 0.00 60 1015.8
20260506170105 12 297 1.6 8.0 0.00 0.00 0.00 60 1015.8
20260506165604 12 328 0.0 4.8 0.00 0.00 0.00 60 1015.7
20260506165105 12 275 1.6 4.8 0.00 0.00 0.00 58 1015.6
20260506164604 12 255 0.0 4.8 0.00 0.00 0.00 59 1015.7
20260506164104 12 263 0.0 4.8 0.00 0.00 0.00 58 1015.7
20260506163605 12 255 1.6 4.8 0.00 0.00 0.00 58 1015.7
20260506163105 12 327 1.6 4.8 0.00 0.00 0.00 55 1015.7
20260506162605 12 262 1.6 9.7 0.00 0.00 0.00 54 1015.7